timestamp,3576000,7076000,10138000,14076000,21076000,28076000
2020/11/25 19:59:56+0000,-41.16,-45.00,-34.73,-49.13,-54.31,-55.43
2020/11/25 20:00:48+0000,-41.33,-46.39,-33.63,-48.71,-54.42,-56.52
2020/11/25 20:01:49+0000,-40.96,-44.77,-33.69,-48.64,-53.77,-55.63
2020/11/25 20:02:41+0000,-41.19,-46.30,-33.97,-48.08,-54.01,-55.44
2020/11/25 20:03:33+0000,-40.97,-45.70,-33.99,-48.81,-54.27,-55.50
2020/11/25 20:04:25+0000,-41.00,-43.90,-34.14,-47.69,-53.64,-56.09
2020/11/25 20:05:17+0000,-40.76,-44.38,-34.09,-48.10,-53.68,-56.64
2020/11/25 20:06:09+0000,-41.25,-45.62,-34.07,-47.67,-54.39,-55.80
2020/11/25 20:07:01+0000,-41.10,-46.98,-33.77,-48.26,-53.92,-54.02
2020/11/25 20:07:53+0000,-40.90,-46.23,-34.47,-48.24,-54.22,-56.35
2020/11/25 20:08:45+0000,-41.10,-47.05,-34.09,-48.03,-54.28,-56.50
2020/11/25 20:09:37+0000,-40.95,-47.93,-33.99,-48.90,-53.35,-55.63
2020/11/25 20:10:29+0000,-40.69,-47.08,-34.08,-47.28,-51.50,-56.30
2020/11/25 20:11:29+0000,-40.95,-45.56,-34.04,-48.62,-53.85,-56.78
2020/11/25 20:12:21+0000,-40.36,-51.18,-34.24,-47.71,-54.03,-57.01
2020/11/25 20:13:13+0000,-41.20,-50.87,-34.94,-49.28,-53.35,-56.25
2020/11/25 20:14:05+0000,-41.29,-50.76,-34.28,-48.79,-53.28,-56.07
2020/11/25 20:14:57+0000,-41.23,-50.86,-34.32,-48.15,-52.05,-56.32
2020/11/25 20:15:49+0000,-41.07,-49.52,-34.59,-49.33,-53.38,-56.52
2020/11/25 20:16:41+0000,-41.06,-50.60,-34.85,-45.91,-53.59,-55.85
2020/11/25 20:17:33+0000,-41.33,-50.57,-34.59,-49.74,-54.00,-55.50
2020/11/25 20:18:25+0000,-41.00,-51.02,-33.91,-48.35,-54.12,-56.32
2020/11/25 20:19:18+0000,-41.76,-50.64,-34.37,-50.34,-54.21,-57.06
2020/11/25 20:20:10+0000,-42.23,-50.37,-34.54,-46.51,-54.26,-55.89
2020/11/25 20:21:09+0000,-41.96,-49.50,-34.22,-46.55,-53.62,-55.70
2020/11/25 20:22:01+0000,-41.94,-50.60,-34.70,-47.97,-53.76,-56.67
2020/11/25 20:22:53+0000,-41.24,-51.35,-34.46,-48.87,-53.34,-55.87
2020/11/25 20:23:45+0000,-41.94,-50.72,-34.67,-47.31,-53.27,-56.01
2020/11/25 20:24:37+0000,-42.07,-50.58,-33.89,-48.80,-51.68,-56.59
2020/11/25 20:25:29+0000,-41.26,-50.68,-33.50,-48.22,-50.42,-56.12
2020/11/25 20:26:21+0000,-42.65,-50.62,-34.87,-47.07,-52.75,-56.47
2020/11/25 20:27:13+0000,-41.35,-50.32,-34.99,-46.59,-53.70,-56.48
2020/11/25 20:28:05+0000,-41.55,-50.35,-34.64,-47.64,-54.00,-55.73
2020/11/25 20:28:57+0000,-41.01,-50.53,-34.86,-48.73,-54.37,-55.96
2020/11/25 20:29:49+0000,-41.67,-50.41,-34.41,-49.99,-53.64,-56.54
2020/11/25 20:30:41+0000,-41.29,-50.91,-34.40,-47.17,-54.32,-55.86
2020/11/25 20:31:40+0000,-41.49,-50.30,-35.18,-47.23,-54.47,-55.85
2020/11/25 20:32:32+0000,-40.76,-50.74,-34.40,-48.77,-52.49,-56.32
2020/11/25 20:33:24+0000,-40.84,-50.66,-34.44,-49.20,-54.13,-56.35
2020/11/25 20:34:16+0000,-40.76,-50.66,-34.94,-46.87,-54.16,-56.83
2020/11/25 20:35:08+0000,-41.08,-50.98,-33.69,-48.53,-53.75,-55.63
2020/11/25 20:36:01+0000,-41.50,-50.55,-34.32,-49.32,-53.16,-56.00
2020/11/25 20:36:53+0000,-41.57,-51.07,-34.56,-48.01,-53.61,-55.16
2020/11/25 20:37:45+0000,-41.47,-50.27,-34.19,-47.50,-53.61,-56.16
2020/11/25 20:38:37+0000,-40.77,-50.30,-34.40,-47.12,-53.10,-56.13
2020/11/25 20:39:29+0000,-41.22,-50.62,-34.30,-48.76,-52.70,-55.94
2020/11/25 20:40:21+0000,-40.33,-50.37,-34.04,-49.15,-53.51,-56.05
2020/11/25 20:41:22+0000,-40.18,-47.84,-34.80,-48.50,-53.24,-56.45
2020/11/25 20:42:14+0000,-40.41,-50.24,-34.35,-48.09,-54.19,-55.50
2020/11/25 20:43:06+0000,-40.73,-50.16,-34.22,-48.55,-52.56,-55.90
2020/11/25 20:43:58+0000,-39.69,-50.87,-34.25,-49.18,-51.26,-55.78
2020/11/25 20:44:50+0000,-40.71,-50.10,-34.30,-48.91,-51.81,-55.99
2020/11/25 20:45:42+0000,-40.89,-50.99,-33.97,-48.24,-53.79,-55.69
2020/11/25 20:46:34+0000,-40.68,-50.71,-34.38,-49.23,-53.10,-55.97
2020/11/25 20:47:26+0000,-41.00,-50.73,-34.71,-47.39,-53.52,-55.37
2020/11/25 20:48:18+0000,-40.81,-50.48,-34.13,-49.07,-53.01,-55.69
2020/11/25 20:49:10+0000,-39.60,-50.96,-34.64,-47.96,-54.71,-55.61
2020/11/25 20:50:03+0000,-40.37,-50.97,-34.17,-48.33,-51.16,-56.34
2020/11/25 20:51:02+0000,-40.10,-44.27,-33.83,-41.84,-52.06,-56.73
2020/11/25 20:51:54+0000,-40.51,-45.91,-34.10,-48.23,-52.23,-55.35
2020/11/25 20:52:46+0000,-40.45,-46.17,-34.22,-48.61,-53.45,-55.50
2020/11/25 20:53:38+0000,-40.44,-44.34,-34.15,-48.20,-50.24,-55.71
2020/11/25 20:54:31+0000,-40.35,-45.08,-34.62,-49.13,-53.09,-56.28
2020/11/25 20:55:23+0000,-40.60,-46.80,-33.42,-47.74,-51.68,-54.60
2020/11/25 20:56:15+0000,-40.12,-45.05,-33.23,-47.15,-51.31,-55.57
2020/11/25 20:57:07+0000,-40.18,-47.62,-33.88,-47.82,-51.02,-55.68
2020/11/25 20:57:59+0000,-39.48,-46.53,-33.92,-48.47,-50.84,-54.02
2020/11/25 20:58:51+0000,-39.76,-46.08,-34.00,-49.65,-51.18,-54.74
2020/11/25 20:59:43+0000,-39.77,-45.59,-34.85,-48.94,-50.35,-55.04
2020/11/25 21:00:35+0000,-40.81,-47.33,-34.28,-49.83,-50.56,-54.62
2020/11/25 21:01:35+0000,-40.08,-46.50,-33.57,-48.64,-53.23,-52.75
2020/11/25 21:02:27+0000,-41.02,-47.14,-34.09,-48.96,-52.29,-55.07
2020/11/25 21:03:19+0000,-40.59,-46.53,-34.09,-48.80,-51.48,-54.79
2020/11/25 21:04:11+0000,-40.45,-45.85,-33.94,-48.26,-51.93,-56.20
2020/11/25 21:05:03+0000,-40.42,-45.30,-33.86,-49.73,-50.73,-55.74
2020/11/25 21:05:55+0000,-40.45,-45.72,-34.30,-48.33,-54.63,-55.26
2020/11/25 21:06:47+0000,-39.86,-44.27,-34.62,-49.84,-51.16,-56.40
2020/11/25 21:07:39+0000,-40.81,-46.79,-34.21,-48.51,-54.78,-55.62
2020/11/25 21:08:31+0000,-40.35,-46.21,-33.77,-47.42,-52.00,-56.29
2020/11/25 21:09:24+0000,-39.73,-44.71,-34.63,-47.33,-54.02,-55.56
2020/11/25 21:10:16+0000,-40.04,-46.01,-34.36,-47.95,-51.95,-56.70
2020/11/25 21:11:14+0000,-41.27,-46.56,-33.56,-48.09,-50.70,-55.34
2020/11/25 21:12:06+0000,-40.64,-46.85,-34.13,-48.02,-52.57,-55.76
2020/11/25 21:12:58+0000,-40.60,-46.30,-33.39,-45.71,-50.16,-55.67
2020/11/25 21:13:50+0000,-40.40,-45.00,-34.22,-47.73,-50.45,-55.61
2020/11/25 21:14:43+0000,-40.96,-45.66,-33.80,-48.00,-51.41,-55.82
2020/11/25 21:15:35+0000,-41.54,-46.07,-33.48,-49.89,-51.57,-56.03
2020/11/25 21:16:27+0000,-41.71,-46.86,-34.10,-48.05,-52.32,-55.75
2020/11/25 21:17:19+0000,-41.47,-45.30,-34.03,-50.58,-51.51,-55.36
2020/11/25 21:18:11+0000,-41.42,-45.01,-33.75,-48.34,-53.38,-55.97
2020/11/25 21:19:03+0000,-41.39,-46.26,-33.15,-50.00,-51.05,-55.98
2020/11/25 21:19:55+0000,-40.82,-46.49,-33.97,-47.90,-53.86,-55.86
2020/11/25 21:20:47+0000,-40.86,-43.50,-33.79,-49.26,-52.50,-56.02
2020/11/25 21:22:04+0000,-41.38,-46.27,-34.26,-49.73,-49.54,-55.19
2020/11/25 21:22:56+0000,-41.12,-44.71,-33.43,-47.70,-48.44,-55.83
2020/11/25 21:23:48+0000,-41.37,-47.09,-33.73,-49.88,-51.42,-55.90
2020/11/25 21:24:41+0000,-40.89,-47.10,-34.27,-49.35,-52.18,-55.40
2020/11/25 21:25:33+0000,-41.15,-44.94,-34.07,-49.74,-47.57,-55.93
2020/11/25 21:26:25+0000,-40.21,-44.82,-33.81,3.93,-53.33,-55.46
2020/11/25 21:27:17+0000,-41.95,-47.53,-33.74,-48.71,-52.23,-56.28
2020/11/25 21:28:09+0000,-41.44,-45.59,-33.48,-49.19,-53.28,-55.56
2020/11/25 21:29:01+0000,-42.16,-51.14,-33.42,-47.98,-52.12,-55.79
2020/11/25 21:29:53+0000,-41.84,-51.09,-34.37,-48.69,-50.56,-55.60
2020/11/25 21:30:45+0000,-41.62,-45.73,-33.84,-46.49,-53.02,-55.84
2020/11/25 21:31:42+0000,-41.72,-45.37,-33.55,-45.63,-51.57,-56.39
2020/11/25 21:32:35+0000,-40.95,-44.43,-33.49,-50.49,-52.53,-56.47
2020/11/25 21:33:27+0000,-40.68,-45.66,-33.67,-48.33,-53.72,-56.01
2020/11/25 21:34:19+0000,-40.07,-45.09,-33.89,-49.79,-53.26,-56.50
2020/11/25 21:35:11+0000,-40.96,-45.10,-33.65,-46.78,-53.94,-55.53
2020/11/25 21:36:03+0000,-40.88,-44.44,-33.53,-49.35,-48.09,-55.94
2020/11/25 21:36:55+0000,-40.45,-44.40,-34.06,-47.65,-54.06,-56.61
2020/11/25 21:37:47+0000,-40.97,-46.88,-34.22,-48.01,-52.65,-56.52
2020/11/25 21:38:39+0000,-40.79,-45.45,-33.34,-47.20,-49.22,-55.63
2020/11/25 21:39:31+0000,-40.20,-45.53,-34.20,-47.77,-48.51,-56.74
2020/11/25 21:40:23+0000,-41.14,-45.04,-33.32,-48.66,-52.29,-56.02
2020/11/25 21:41:21+0000,-40.22,-45.96,-34.14,-49.42,-53.32,-56.56
2020/11/25 21:42:13+0000,-40.80,-46.92,-34.16,-47.85,-52.45,-56.46
2020/11/25 21:43:05+0000,-40.15,-46.35,-33.58,-50.46,-48.21,-55.76
2020/11/25 21:43:57+0000,-40.51,-45.90,-32.98,-48.80,-50.89,-55.77
2020/11/25 21:44:49+0000,-40.44,-45.19,-33.31,-50.92,-52.10,-55.97
2020/11/25 21:45:41+0000,-40.49,-45.16,-33.84,-46.74,-51.36,-55.82
2020/11/25 21:46:33+0000,-42.01,-44.39,-33.66,-48.31,-48.44,-56.07
2020/11/25 21:47:25+0000,-41.17,-44.34,-33.86,-48.09,-53.97,-56.00
2020/11/25 21:48:17+0000,-40.73,-50.51,-34.79,-46.57,-52.45,-56.42
2020/11/25 21:49:09+0000,-41.61,-50.43,-33.85,-47.27,-53.44,-55.38
2020/11/25 21:50:01+0000,-41.13,-50.19,-34.34,-46.91,-50.29,-56.14
2020/11/25 21:51:02+0000,-40.40,-51.18,-34.20,-45.99,-48.57,-56.40
2020/11/25 21:51:54+0000,-41.07,-50.96,-34.79,-47.64,-52.87,-56.49
2020/11/25 21:52:46+0000,-40.94,-50.14,-33.85,-49.16,-53.96,-56.61
2020/11/25 21:53:38+0000,-41.07,-51.12,-33.99,-47.89,-48.70,-56.77
2020/11/25 21:54:30+0000,-40.73,-51.38,-32.84,-46.52,-52.16,-56.64
2020/11/25 21:55:22+0000,-40.67,-51.64,-33.90,-47.21,-53.13,-55.94
2020/11/25 21:56:14+0000,-40.47,-50.63,-34.57,-48.76,-52.95,-56.40
2020/11/25 21:57:07+0000,-40.67,-50.70,-34.26,-49.42,-47.73,-56.74
2020/11/25 21:57:59+0000,-40.25,-50.34,-34.29,-48.75,-48.09,-55.73
2020/11/25 21:58:51+0000,-39.95,-50.55,-34.50,-49.87,-52.43,-56.60
2020/11/25 21:59:43+0000,-40.28,-51.12,-34.52,-47.31,-52.57,-55.92
2020/11/25 22:00:35+0000,-40.42,-49.72,-34.20,-50.46,-49.37,-55.91
2020/11/25 22:01:33+0000,-40.73,-50.03,-34.31,-49.95,-48.60,-55.65
2020/11/25 22:02:25+0000,-40.37,-50.89,-33.85,-48.81,-54.83,-55.76
2020/11/25 22:03:17+0000,-41.03,-51.38,-34.37,-49.17,-54.13,-56.33
2020/11/25 22:04:09+0000,-40.71,-50.96,-34.47,-47.85,-54.68,-55.85
2020/11/25 22:05:01+0000,-40.97,-51.19,-33.68,-47.00,-49.39,-56.75
2020/11/25 22:05:53+0000,-40.80,-51.26,-34.22,-47.90,-51.83,-56.13
2020/11/25 22:06:45+0000,-41.11,-50.74,-34.68,-46.15,-52.09,-56.12
2020/11/25 22:07:37+0000,-41.42,-50.39,-34.15,-47.57,-52.11,-56.19
2020/11/25 22:08:29+0000,-40.93,-50.23,-34.42,-47.79,-53.40,-56.31
2020/11/25 22:09:21+0000,-41.03,-51.55,-33.74,-48.19,-53.77,-56.36
2020/11/25 22:10:14+0000,-40.96,-51.13,-34.47,-47.79,-53.18,-55.91
2020/11/25 22:11:11+0000,-41.57,-51.53,-34.29,-47.48,-54.33,-55.80
2020/11/25 22:12:03+0000,-41.22,-51.41,-34.03,-50.27,-53.04,-55.08
2020/11/25 22:12:55+0000,-40.79,-51.04,-33.25,-48.89,-53.42,-56.66
2020/11/25 22:13:47+0000,-40.58,-50.60,-33.87,-47.63,-53.16,-56.17
2020/11/25 22:14:39+0000,-40.16,-50.07,-34.36,-46.46,-55.05,-56.29
2020/11/25 22:15:31+0000,-40.96,-51.19,-33.45,-47.17,-53.06,-55.90
2020/11/25 22:16:23+0000,-40.69,-50.08,-33.39,-47.85,-52.43,-55.88
2020/11/25 22:17:15+0000,-40.48,-50.43,-33.94,-48.37,-54.82,-55.28
2020/11/25 22:18:07+0000,-40.44,-51.46,-34.41,-47.92,-54.02,-55.95
2020/11/25 22:18:59+0000,-40.41,-51.55,-33.92,-46.38,-52.51,-55.98
2020/11/25 22:19:52+0000,-40.78,-51.44,-33.76,-47.95,-50.91,-56.37
2020/11/25 22:20:44+0000,-40.55,-51.00,-33.95,-47.52,-51.33,-56.30
2020/11/25 22:21:43+0000,-40.69,-50.34,-34.12,-47.37,-53.12,-56.39
2020/11/25 22:22:35+0000,-40.04,-51.52,-33.71,-50.06,-48.64,-56.01
2020/11/25 22:23:27+0000,-40.43,-51.32,-34.10,-47.29,-53.76,-45.08
2020/11/25 22:24:19+0000,-40.65,-50.90,-33.68,-50.08,-53.57,-56.29
2020/11/25 22:25:11+0000,-40.64,-50.84,-33.89,-47.32,-55.14,-55.94
2020/11/25 22:26:03+0000,-39.61,-51.03,-34.06,-49.93,-51.19,-56.31
2020/11/25 22:26:55+0000,-39.81,-51.35,-33.84,-46.63,-54.18,-56.08
2020/11/25 22:27:47+0000,-40.34,-50.29,-33.80,-46.25,-52.06,-55.90
2020/11/25 22:28:39+0000,-39.80,-51.40,-33.31,-45.55,-54.35,-56.39
2020/11/25 22:29:31+0000,-39.92,-51.81,-33.91,-45.40,-51.38,-56.20
2020/11/25 22:30:24+0000,-39.69,-51.87,-33.49,-46.56,-51.91,-56.00
2020/11/25 22:31:22+0000,-39.66,-51.38,-34.72,-46.73,-53.02,-55.77
2020/11/25 22:32:14+0000,-40.47,-51.40,-33.57,-47.86,-53.91,-56.22
2020/11/25 22:33:06+0000,-40.25,-51.61,-34.33,-47.53,-52.42,-56.18
2020/11/25 22:33:58+0000,-39.50,-47.48,-34.12,-48.95,-52.60,-56.54
2020/11/25 22:34:50+0000,-39.47,-50.64,-33.60,-49.86,-53.46,-56.78
2020/11/25 22:35:42+0000,-39.94,-49.24,-33.86,-47.54,-52.41,-56.87
2020/11/25 22:36:34+0000,-40.34,-51.61,-34.16,-50.87,-51.52,-56.23
2020/11/25 22:37:26+0000,-40.18,-51.00,-33.84,-48.16,-54.18,-56.69
2020/11/25 22:38:18+0000,-39.74,-48.80,-34.22,-50.52,-53.24,-56.42
2020/11/25 22:39:10+0000,-40.16,-49.84,-34.23,-45.82,-54.58,-56.46
2020/11/25 22:40:03+0000,-39.54,-51.01,-33.50,-47.30,-52.70,-57.00
2020/11/25 22:41:02+0000,-39.77,-50.73,-33.67,-47.75,-52.49,-56.00
2020/11/25 22:41:54+0000,-40.77,-50.68,-33.85,-47.78,-53.71,-56.85
2020/11/25 22:42:46+0000,-40.34,-50.75,-33.63,-46.24,-53.30,-56.03
2020/11/25 22:43:38+0000,-40.99,-51.71,-34.35,-47.76,-51.56,-55.99
2020/11/25 22:44:30+0000,-40.01,-50.76,-33.66,-44.78,-52.60,-55.83
2020/11/25 22:45:22+0000,-39.46,-51.28,-34.29,-46.19,-53.82,-56.31
2020/11/25 22:46:14+0000,-40.37,-50.57,-33.67,-47.35,-52.65,-56.07
2020/11/25 22:47:07+0000,-39.64,-51.09,-33.95,-48.82,-53.52,-56.88
2020/11/25 22:47:59+0000,-40.59,-49.77,-33.99,-48.01,-50.31,-55.78
2020/11/25 22:48:51+0000,-40.13,-51.22,-33.78,-48.44,-49.32,-54.05
2020/11/25 22:49:43+0000,-39.62,-51.03,-33.67,-45.64,-51.82,-56.12
2020/11/25 22:50:35+0000,-39.75,-51.06,-33.66,-49.58,-54.00,-56.29
2020/11/25 22:51:34+0000,-40.22,-50.61,-33.69,-50.11,-51.85,-56.47
2020/11/25 22:52:27+0000,-39.63,-51.28,-34.17,-45.98,-52.75,-56.68
2020/11/25 22:53:19+0000,-40.23,-50.83,-33.23,-47.04,-50.78,-56.30
2020/11/25 22:54:11+0000,-40.23,-50.91,-34.14,-48.10,-53.33,-56.07
2020/11/25 22:55:03+0000,-39.78,-50.94,-34.05,-47.24,-51.98,-55.82
2020/11/25 22:55:55+0000,-40.63,-50.83,-33.69,-48.72,-51.22,-54.29
2020/11/25 22:56:47+0000,-40.20,-51.32,-33.86,-47.81,-49.98,-56.73
2020/11/25 22:57:39+0000,-41.22,-51.31,-33.64,-47.40,-50.91,-56.27
2020/11/25 22:58:31+0000,-40.55,-51.59,-34.58,-47.50,-51.65,-56.04
2020/11/25 22:59:23+0000,-40.73,-50.98,-33.60,-46.13,-48.72,-56.44
2020/11/25 23:00:15+0000,-40.57,-50.76,-33.33,-48.58,-50.62,-56.49
2020/11/25 23:01:15+0000,-41.41,-51.24,-33.32,-46.41,-50.57,-56.10
2020/11/25 23:02:07+0000,-41.37,-50.59,-33.90,-47.36,-53.37,-56.57
2020/11/25 23:02:59+0000,-40.77,-49.92,-33.49,-47.89,-50.91,-56.14
2020/11/25 23:03:51+0000,-40.73,-51.08,-34.34,-45.14,-49.08,-55.93
2020/11/25 23:04:43+0000,-40.81,-50.38,-33.00,-46.76,-49.99,-56.23
2020/11/25 23:05:35+0000,-41.74,-51.10,-33.48,-47.01,-51.47,-56.49
2020/11/25 23:06:27+0000,-40.91,-49.97,-33.29,-46.68,-51.50,-56.13
2020/11/25 23:07:19+0000,-41.93,-49.78,-33.86,-50.27,-50.33,-55.80
2020/11/25 23:08:11+0000,-40.80,-44.80,-33.41,-44.86,-52.80,-55.99
2020/11/25 23:09:03+0000,-41.45,-46.02,-33.35,-50.48,-51.70,-56.25
2020/11/25 23:09:56+0000,-41.36,-46.14,-34.06,-46.67,-52.13,-56.16
2020/11/25 23:10:48+0000,-41.54,-44.02,-33.98,-50.08,-53.92,-55.93
2020/11/25 23:11:47+0000,-40.89,-44.05,-33.83,-47.09,-51.38,-56.22
2020/11/25 23:12:39+0000,-40.37,-44.57,-33.55,-46.80,-54.74,-56.48
2020/11/25 23:13:31+0000,-40.98,-44.76,-32.94,-47.41,-51.17,-55.98
2020/11/25 23:14:23+0000,-40.99,-44.48,-33.76,-45.91,-52.92,-55.91
2020/11/25 23:15:15+0000,-41.21,-45.87,-33.29,-45.17,-50.51,-55.72
2020/11/25 23:16:07+0000,-41.44,-45.81,-34.04,-46.69,-50.26,-56.02
2020/11/25 23:16:59+0000,-41.68,-46.41,-33.63,-45.90,-52.80,-55.93
2020/11/25 23:17:52+0000,-40.45,-44.37,-33.34,-46.03,-53.44,-55.51
2020/11/25 23:18:44+0000,-39.87,-44.69,-33.35,-48.19,-51.30,-56.18
2020/11/25 23:19:36+0000,-39.80,-46.18,-34.03,-46.95,-52.77,-55.91
2020/11/25 23:20:28+0000,-39.62,-44.36,-33.84,-46.80,-52.43,-55.35
2020/11/25 23:21:32+0000,-40.47,-44.87,-33.47,-47.82,-50.91,-56.14
2020/11/25 23:22:24+0000,-39.82,-45.58,-31.46,-46.52,-52.39,-56.56
2020/11/25 23:23:16+0000,-41.23,-46.20,-32.73,-48.03,-51.65,-55.54
2020/11/25 23:24:08+0000,-39.62,-44.36,-32.36,-47.03,-51.70,-56.20
2020/11/25 23:25:00+0000,-39.87,-43.78,-32.60,-47.43,-52.36,-56.01
2020/11/25 23:25:52+0000,-39.61,-46.39,-33.36,-46.63,-50.31,-55.90
2020/11/25 23:26:44+0000,-40.74,-50.81,-33.64,-47.20,-51.93,-56.05
2020/11/25 23:27:36+0000,-40.77,-51.68,-32.63,-47.26,-53.95,-55.90
2020/11/25 23:28:28+0000,-39.82,-49.57,-31.61,-47.44,-52.85,-56.14
2020/11/25 23:29:20+0000,-40.11,-51.31,-33.73,-48.47,-51.76,-56.21
2020/11/25 23:30:13+0000,-39.50,-49.67,-33.41,-47.61,-52.55,-56.48
2020/11/25 23:31:16+0000,-40.23,-49.66,-33.27,-47.34,-53.32,-56.47
2020/11/25 23:32:08+0000,-39.65,-50.90,-34.16,-47.81,-52.44,-55.70
2020/11/25 23:33:00+0000,-39.74,-49.86,-33.91,-48.11,-52.65,-56.04
2020/11/25 23:33:52+0000,-39.86,-50.92,-33.17,-46.78,-52.52,-56.32
2020/11/25 23:34:44+0000,-37.54,-45.20,-33.38,-48.46,-52.55,-56.22
2020/11/25 23:35:36+0000,-38.54,-45.56,-33.64,-47.54,-52.88,-56.53
2020/11/25 23:36:28+0000,-38.93,-45.89,-33.63,-46.85,-54.11,-56.63
2020/11/25 23:37:21+0000,-39.77,-46.01,-33.38,-47.94,-54.52,-55.98
2020/11/25 23:38:13+0000,-39.74,-45.27,-33.72,-47.02,-52.15,-56.18
2020/11/25 23:39:05+0000,-39.99,-44.09,-33.75,-50.80,-54.43,-55.67
2020/11/25 23:39:57+0000,-39.80,-45.73,-33.71,-47.42,-54.91,-55.89
2020/11/25 23:40:49+0000,-40.08,-43.72,-33.56,-50.94,-54.87,-55.95
2020/11/25 23:41:48+0000,-40.09,-44.12,-34.02,-47.99,-54.88,-56.46
2020/11/25 23:42:40+0000,-40.38,-43.68,-32.46,-48.63,-54.66,-55.84
2020/11/25 23:43:32+0000,-40.78,-45.62,-32.99,-44.82,-53.64,-55.82
2020/11/25 23:44:24+0000,-40.36,-45.47,-33.59,-48.33,-54.20,-56.12
2020/11/25 23:45:16+0000,-40.02,-42.52,-33.49,-48.65,-54.44,-56.63
2020/11/25 23:46:08+0000,-40.26,-45.07,-32.95,-47.38,-54.44,-56.51
2020/11/25 23:47:00+0000,-41.22,-44.23,-33.21,-47.53,-54.65,-55.92
2020/11/25 23:47:52+0000,-41.35,-46.73,-33.62,-49.65,-54.50,-55.91
2020/11/25 23:48:44+0000,-41.38,-46.10,-33.30,-48.49,-54.44,-56.47
2020/11/25 23:49:36+0000,-40.77,-44.94,-32.30,-49.59,-53.78,-56.30
2020/11/25 23:50:29+0000,-40.47,-44.32,-33.67,-48.48,-54.14,-55.81
2020/11/25 23:51:27+0000,-40.63,-46.92,-33.76,-46.81,-55.29,-56.26
2020/11/25 23:52:19+0000,-41.01,-44.83,-33.85,-50.07,-55.66,-56.21
2020/11/25 23:53:11+0000,-40.93,-47.03,-32.86,-47.98,-52.40,-55.62
2020/11/25 23:54:03+0000,-41.50,-44.92,-33.67,-48.27,-54.79,-56.56
2020/11/25 23:54:55+0000,-40.68,-44.32,-33.67,-48.45,-54.62,-55.82
2020/11/25 23:55:47+0000,-39.20,-43.88,-33.58,-49.15,-51.82,-54.90
2020/11/25 23:56:39+0000,-40.16,-44.83,-32.85,-48.26,-51.41,-55.30
2020/11/25 23:57:31+0000,-40.56,-43.61,-33.51,-48.00,-54.67,-54.49
2020/11/25 23:58:23+0000,-40.41,-45.57,-33.42,-48.71,-54.61,-55.56
2020/11/25 23:59:15+0000,-40.32,-45.00,-33.70,-49.11,-51.60,-55.05
2020/11/26 00:00:08+0000,-40.80,-46.45,-33.50,-48.81,-54.95,-55.98
2020/11/26 00:01:13+0000,-40.84,-44.51,-33.55,-49.85,-55.19,-55.66
2020/11/26 00:02:05+0000,-40.27,-44.60,-33.64,-48.25,-55.04,-54.94
2020/11/26 00:02:57+0000,-40.06,-45.90,-34.36,-48.63,-54.88,-54.79
2020/11/26 00:03:49+0000,-40.56,-45.61,-34.06,-49.53,-51.97,-54.84
2020/11/26 00:04:41+0000,-39.99,-44.29,-33.81,-49.94,-53.18,-55.18
2020/11/26 00:05:33+0000,-39.48,-44.19,-33.47,-50.67,-55.18,-55.16
2020/11/26 00:06:26+0000,-39.60,-45.70,-33.69,-47.30,-54.55,-55.84
2020/11/26 00:07:18+0000,-40.42,-43.57,-33.88,-50.07,-54.38,-56.32
2020/11/26 00:08:10+0000,-39.13,-45.65,-33.13,-48.71,-54.22,-56.00
2020/11/26 00:09:02+0000,-39.31,-46.38,-33.96,-46.93,-55.20,-55.45
2020/11/26 00:09:54+0000,-40.08,-45.97,-33.51,-48.04,-54.14,-56.15
2020/11/26 00:10:46+0000,-40.37,-44.72,-33.66,-47.71,-54.34,-56.03
2020/11/26 00:12:03+0000,-39.36,-46.60,-33.82,-50.46,-53.45,-56.04
2020/11/26 00:12:55+0000,-39.86,-45.77,-33.75,-48.45,-54.06,-55.06
2020/11/26 00:13:47+0000,-40.44,-45.51,-33.58,-49.51,-51.16,-55.59
2020/11/26 00:14:39+0000,-39.63,-45.07,-33.61,-45.56,-53.86,-55.32
2020/11/26 00:15:31+0000,-39.60,-46.91,-33.91,-47.86,-53.94,-55.64
2020/11/26 00:16:23+0000,-39.73,-44.68,-33.11,-48.09,-54.75,-55.58
2020/11/26 00:17:15+0000,-39.70,-45.37,-32.96,-47.51,-54.46,-55.57
2020/11/26 00:18:07+0000,-38.99,-47.08,-33.71,-48.00,-54.20,-55.96
2020/11/26 00:18:59+0000,-39.07,-46.33,-33.59,-48.34,-53.96,-55.99
2020/11/26 00:19:52+0000,-39.60,-45.12,-33.94,-48.93,-54.37,-55.90
2020/11/26 00:20:44+0000,-40.21,-44.61,-33.49,-48.45,-54.66,-55.64
2020/11/26 00:21:41+0000,-38.72,-46.85,-33.21,-46.05,-54.33,-56.02
2020/11/26 00:22:33+0000,-39.63,-45.63,-33.95,-48.60,-54.28,-55.90
2020/11/26 00:23:25+0000,-39.77,-46.01,-33.89,-46.44,-54.64,-55.63
2020/11/26 00:24:17+0000,-40.11,-45.27,-33.56,-46.91,-53.87,-54.20
2020/11/26 00:25:09+0000,-39.77,-46.59,-33.88,-45.72,-53.29,-54.93
2020/11/26 00:26:01+0000,-39.34,-45.75,-34.18,-47.50,-53.56,-54.65
2020/11/26 00:26:53+0000,-40.27,-44.49,-33.18,-48.06,-53.75,-54.94
2020/11/26 00:27:45+0000,-39.89,-44.01,-33.66,-47.08,-53.53,-54.58
2020/11/26 00:28:38+0000,-39.45,-46.75,-33.66,-47.58,-53.38,-54.40
2020/11/26 00:29:30+0000,-40.58,-45.18,-33.27,-47.42,-53.99,-54.52
2020/11/26 00:30:22+0000,-39.46,-45.84,-33.21,-48.23,-53.95,-54.73
2020/11/26 00:31:20+0000,-39.55,-45.07,-33.27,-48.93,-53.77,-54.69
2020/11/26 00:32:12+0000,-39.42,-42.67,-33.43,-47.11,-53.81,-54.52
2020/11/26 00:33:04+0000,-38.34,-43.65,-33.59,-49.22,-53.89,-54.69
2020/11/26 00:33:56+0000,-38.37,-45.79,-33.35,-47.58,-54.46,-54.60
2020/11/26 00:34:48+0000,-39.43,-44.73,-32.72,-46.86,-54.41,-55.03
2020/11/26 00:35:40+0000,-39.77,-46.40,-33.95,-47.12,-53.24,-54.25
2020/11/26 00:36:32+0000,-39.05,-44.75,-32.85,-47.07,-53.36,-54.79
2020/11/26 00:37:24+0000,-39.17,-45.57,-33.94,-45.57,-53.66,-54.43
2020/11/26 00:38:16+0000,-38.14,-45.77,-33.43,-47.31,-53.78,-53.97
2020/11/26 00:39:08+0000,-39.79,-45.58,-33.68,-46.34,-52.64,-54.58
2020/11/26 00:40:01+0000,-40.40,-40.30,-33.92,-48.06,-53.25,-54.39
2020/11/26 00:41:00+0000,-39.72,-44.20,-33.74,-47.37,-52.20,-54.20
2020/11/26 00:41:52+0000,-40.05,-44.71,-33.60,-48.65,-53.37,-54.16
2020/11/26 00:42:45+0000,-39.53,-46.00,-33.60,-47.50,-53.76,-54.24
2020/11/26 00:43:37+0000,-39.15,-45.84,-33.64,-49.07,-53.25,-54.54
2020/11/26 00:44:29+0000,-39.92,-45.43,-33.48,-48.32,-54.59,-54.65
2020/11/26 00:45:21+0000,-39.48,-45.23,-33.93,-49.13,-53.82,-54.58
2020/11/26 00:46:13+0000,-39.45,-45.46,-32.72,-48.42,-53.78,-54.32
2020/11/26 00:47:05+0000,-39.76,-43.47,-32.43,-48.74,-54.21,-54.31
2020/11/26 00:47:57+0000,-40.18,-46.40,-33.97,-48.81,-53.96,-54.65
2020/11/26 00:48:49+0000,-39.84,-45.40,-33.50,-48.97,-54.17,-54.35
2020/11/26 00:49:41+0000,-40.26,-44.19,-33.71,-47.75,-54.43,-54.54
2020/11/26 00:50:33+0000,-39.36,-44.78,-33.74,-49.00,-54.14,-54.11
2020/11/26 00:51:32+0000,-39.82,-44.29,-32.83,-49.60,-54.51,-54.90
2020/11/26 00:52:24+0000,-39.42,-45.30,-33.58,-49.52,-53.93,-54.60
2020/11/26 00:53:16+0000,-39.88,-44.95,-33.91,-48.36,-54.29,-53.67
2020/11/26 00:54:08+0000,-39.30,-46.46,-33.31,-47.36,-54.41,-53.93
2020/11/26 00:55:00+0000,-39.03,-45.55,-33.96,-48.87,-54.42,-54.06
2020/11/26 00:55:52+0000,-39.00,-44.40,-33.82,-48.46,-53.52,-54.35
2020/11/26 00:56:44+0000,-39.19,-44.76,-33.94,-48.15,-53.70,-54.09
2020/11/26 00:57:36+0000,-38.87,-44.61,-33.52,-49.01,-53.98,-54.76
2020/11/26 00:58:28+0000,-38.67,-43.90,-33.56,-48.28,-54.45,-55.02
2020/11/26 00:59:20+0000,-38.69,-48.40,-33.88,-49.49,-53.69,-54.77
2020/11/26 01:00:12+0000,-39.51,-48.10,-33.18,-49.13,-51.92,-54.09
2020/11/26 01:01:29+0000,-39.80,-48.57,-33.36,-47.82,-52.66,-53.97
2020/11/26 01:02:21+0000,-39.67,-49.66,-33.49,-49.52,-52.18,-54.29
2020/11/26 01:03:14+0000,-39.49,-47.43,-33.60,-48.78,-53.05,-54.78
2020/11/26 01:04:06+0000,-39.16,-50.21,-33.86,-48.74,-51.94,-54.09
2020/11/26 01:04:58+0000,-38.86,-47.93,-34.05,-48.58,-53.26,-55.00
2020/11/26 01:05:50+0000,-40.28,-49.92,-34.14,-49.02,-53.70,-54.76
2020/11/26 01:06:42+0000,-39.22,-48.72,-33.54,-48.37,-52.60,-55.18
2020/11/26 01:07:34+0000,-39.32,-48.15,-33.89,-49.54,-53.23,-55.14
2020/11/26 01:08:26+0000,-39.10,-48.46,-33.66,-48.64,-52.47,-54.78
2020/11/26 01:09:18+0000,-39.06,-48.25,-33.80,-49.38,-53.28,-54.45
2020/11/26 01:10:10+0000,-39.48,-47.65,-34.34,-49.46,-53.96,-54.39
2020/11/26 01:11:32+0000,-39.32,-46.73,-33.46,-47.83,-54.54,-55.11
2020/11/26 01:12:24+0000,-38.66,-47.78,-33.84,-49.53,-54.00,-54.61
2020/11/26 01:13:16+0000,-39.32,-48.75,-33.75,-49.71,-54.18,-54.78
2020/11/26 01:14:08+0000,-39.15,-47.82,-33.06,-49.45,-54.78,-54.05